GW5117 Weather Reports


time (UTC)temp
F
wind
direction
speed
knots
gust
knots
rain 1hr
in
rain 24hr
in
rain mn
in
humidity
%
barometer
mb
20260505075827 49 189 0.0 0.0 0.00 0.00 0.00 99 1011.8
20260505075324 49 172 0.0 0.9 0.00 0.00 0.00 99 1011.8
20260505074821 49 199 0.0 0.9 0.00 0.00 0.00 99 1011.7
20260505074319 49 193 0.0 0.0 0.00 0.00 0.00 99 1012.0
20260505073816 49 182 0.0 1.7 0.00 0.00 0.00 99 1011.7
20260505073314 49 200 0.0 0.9 0.00 0.00 0.00 99 1011.8
20260505072810 49 190 0.0 0.9 0.00 0.00 0.00 99 1011.7
20260505072306 49 191 0.0 0.0 0.00 0.00 0.00 99 1011.8
20260505071802 49 198 0.0 0.9 0.00 0.00 0.00 99 1011.7
20260505071259 49 225 0.0 1.7 0.00 0.00 0.00 99 1011.9
20260505070757 49 197 0.0 0.0 0.00 0.00 0.00 99 1011.8
20260505070254 49 203 0.0 0.0 0.00 0.00 0.00 99 1011.9
20260505065748 49 202 0.0 0.0 0.00 0.00 0.00 99 1011.9
20260505065246 49 195 0.0 0.0 0.00 0.00 0.00 99 1011.8
20260505064743 49 197 0.0 0.9 0.00 0.00 0.00 99 1011.8
20260505064240 49 197 0.0 0.9 0.00 0.00 0.00 99 1012.0
20260505063738 49 193 0.0 0.0 0.00 0.00 0.00 99 1011.9
20260505063234 50 188 0.0 0.0 0.00 0.00 0.00 99 1011.9
20260505062730 49 191 0.0 0.0 0.00 0.00 0.00 99 1012.1
20260505062228 49 186 0.0 0.0 0.00 0.00 0.00 99 1012.0
20260505061725 50 190 0.0 0.9 0.00 0.00 0.00 99 1012.0
20260505061223 50 184 0.0 0.0 0.00 0.00 0.00 99 1012.0
20260505060720 50 184 0.0 0.0 0.00 0.00 0.00 99 1011.9
20260505060217 50 200 0.0 0.0 0.00 0.00 0.00 99 1012.1
20260505055712 50 203 0.0 0.0 0.00 0.00 0.00 99 1012.1
20260505055209 50 190 0.0 0.0 0.00 0.00 0.00 99 1012.1
20260505054706 50 181 0.0 0.0 0.00 0.00 0.00 99 1012.0
20260505054204 50 193 0.0 0.0 0.00 0.00 0.00 99 1012.1
20260505053702 50 197 0.0 0.0 0.00 0.00 0.00 99 1012.0
20260505053158 51 182 0.0 0.9 0.00 0.00 0.00 99 1011.8
20260505052655 51 194 0.0 0.0 0.00 0.00 0.00 99 1012.0
20260505052152 51 190 0.0 0.0 0.00 0.00 0.00 99 1012.0
20260505051649 51 188 0.0 0.0 0.00 0.00 0.00 99 1012.1
20260505051147 51 188 0.0 0.0 0.00 0.00 0.00 99 1012.0
20260505050645 51 191 0.0 0.0 0.00 0.00 0.00 99 1011.8
20260505050143 52 191 0.0 0.0 0.00 0.00 0.00 99 1011.7
20260505041612 52 192 0.0 0.0 0.00 0.00 0.00 99 1011.4
20260505041110 52 192 0.0 0.0 0.00 0.00 0.00 99 1011.5
20260505040607 51 192 0.0 0.0 0.00 0.00 0.00 99 1011.3
20260505040104 51 192 0.0 0.0 0.00 0.00 0.00 99 1011.3
20260505035600 51 192 0.0 0.0 0.00 0.00 0.00 99 1011.2
20260505035057 51 192 0.0 0.0 0.00 0.00 0.00 99 1011.2
20260505034553 51 192 0.0 0.0 0.00 0.00 0.00 98 1011.2
20260505034050 51 197 0.0 0.0 0.00 0.00 0.00 98 1011.2
20260505033547 51 199 0.0 0.0 0.00 0.00 0.00 98 1011.2
20260505033045 51 197 0.0 0.0 0.00 0.00 0.00 98 1011.1
20260505032543 51 194 0.0 0.0 0.00 0.00 0.00 98 1011.3
20260505032039 51 198 0.0 0.0 0.00 0.00 0.00 98 1011.5
20260505031537 51 197 0.0 0.9 0.00 0.00 0.00 98 1011.3
20260505031033 51 211 0.9 0.9 0.00 0.00 0.00 98 1011.4
20260505030530 51 192 0.0 0.9 0.00 0.00 0.00 98 1011.5
20260505030026 52 197 0.9 0.9 0.00 0.00 0.00 98 1011.3
20260505025522 52 200 0.0 0.0 0.00 0.00 0.00 98 1011.1
20260505025021 52 200 0.0 0.0 0.00 0.00 0.00 97 1011.2
20260505024518 52 197 0.0 0.0 0.00 0.00 0.00 97 1011.3
20260505024015 52 199 0.0 0.0 0.00 0.00 0.00 97 1011.3
20260505023511 52 200 0.0 0.9 0.00 0.00 0.00 97 1011.3
20260505023009 52 190 0.0 0.9 0.00 0.00 0.00 97 1011.2
20260505022507 53 204 0.0 0.0 0.00 0.00 0.00 97 1011.3
20260505022004 53 204 0.0 0.0 0.00 0.00 0.00 96 1011.1
20260505021500 53 198 0.0 0.9 0.00 0.00 0.00 96 1011.4
20260505020955 53 204 0.0 0.9 0.00 0.00 0.00 96 1011.3
20260505020451 53 195 0.9 0.9 0.00 0.00 0.00 95 1011.3
20260505015948 53 188 0.0 0.0 0.00 0.00 0.00 95 1011.2
20260505015446 54 197 0.0 0.0 0.00 0.00 0.00 95 1011.2
20260505014942 54 187 0.0 0.0 0.00 0.00 0.00 95 1011.2
20260505014439 54 187 0.0 0.0 0.00 0.00 0.00 95 1011.1
20260505013937 54 186 0.0 0.0 0.00 0.00 0.00 95 1011.2
20260505013433 54 194 0.0 0.0 0.00 0.00 0.00 94 1011.3
20260505012931 54 196 0.0 0.9 0.00 0.00 0.00 94 1011.1
20260505012429 55 182 0.0 0.0 0.00 0.00 0.00 93 1010.9
20260505011925 55 203 0.0 0.0 0.00 0.00 0.00 93 1011.0
20260505011422 55 200 0.9 1.7 0.00 0.00 0.00 92 1011.1
20260505010918 56 191 0.0 0.0 0.00 0.00 0.00 91 1011.0
20260505010414 56 202 0.0 0.0 0.00 0.00 0.00 92 1011.1
20260505005910 56 198 0.0 0.0 0.00 0.00 0.00 91 1011.1
20260505005407 57 201 0.0 0.0 0.00 0.00 0.00 90 1011.0
20260505004905 57 205 0.0 0.0 0.00 0.00 0.00 90 1010.9
20260505004401 57 206 0.0 0.9 0.00 0.00 0.00 89 1010.8
20260505003858 58 204 0.9 0.9 0.00 0.00 0.00 88 1010.8
20260505003355 58 205 0.0 0.0 0.00 0.00 0.00 87 1010.9
20260505002852 59 203 0.9 0.9 0.00 0.00 0.00 86 1011.0
20260505002348 60 215 0.0 0.0 0.00 0.00 0.00 84 1011.1
20260505001847 60 217 0.0 0.0 0.00 0.00 0.00 84 1011.2
20260505001344 61 211 0.0 0.0 0.00 0.00 0.00 82 1011.2
20260505000841 62 212 0.0 0.0 0.00 0.00 0.00 81 1011.2
20260505000338 62 217 0.0 0.0 0.00 0.00 0.00 80 1011.3
20260504235835 63 217 0.0 0.0 0.00 0.00 0.00 78 1011.2
20260504235332 64 220 0.0 0.0 0.00 0.00 0.00 78 1010.9
20260504234828 64 215 0.0 0.9 0.00 0.00 0.00 77 1011.1
20260504234326 64 213 0.0 0.9 0.00 0.00 0.00 75 1011.0
20260504233822 65 216 0.0 0.0 0.00 0.00 0.00 76 1011.2
20260504233318 65 221 0.0 0.0 0.00 0.00 0.00 74 1011.2
20260504232815 65 223 0.0 0.0 0.00 0.00 0.00 72 1011.3
20260504232312 65 221 0.0 0.9 0.00 0.00 0.00 72 1011.3
20260504231809 65 223 0.0 0.0 0.00 0.00 0.00 70 1011.3
20260504231306 66 215 0.0 0.0 0.00 0.00 0.00 69 1011.4
20260504230802 66 205 0.0 0.0 0.00 0.00 0.00 68 1011.5
20260504230300 67 242 0.0 1.7 0.00 0.00 0.00 66 1011.8
20260504225758 68 251 0.0 1.7 0.00 0.00 0.00 64 1011.6
20260504225254 69 285 0.9 1.7 0.00 0.00 0.00 64 1011.7
20260504224752 70 267 0.9 0.9 0.00 0.00 0.00 61 1011.7
20260504224249 71 255 0.0 0.9 0.00 0.00 0.00 58 1011.9
20260504223745 72 278 0.9 0.9 0.00 0.00 0.00 55 1011.8
20260504223240 73 128 1.7 3.5 0.00 0.00 0.00 51 1011.9
20260504222738 74 152 1.7 2.6 0.00 0.00 0.00 51 1011.8
20260504222234 73 337 0.0 0.9 0.00 0.00 0.00 51 1011.7
20260504221732 73 251 0.9 1.7 0.00 0.00 0.00 52 1011.8
20260504221229 74 278 0.9 1.7 0.00 0.00 0.00 52 1011.8
20260504220725 73 151 1.7 1.7 0.00 0.00 0.00 50 1011.8
20260504220223 73 293 1.7 1.7 0.00 0.00 0.00 49 1011.9
20260504215720 72 148 0.9 1.7 0.00 0.00 0.00 53 1011.9
20260504215217 72 139 0.0 1.7 0.00 0.00 0.00 53 1011.9
20260504214712 73 159 0.9 2.6 0.00 0.00 0.00 51 1011.9
20260504214209 73 160 1.7 2.6 0.00 0.00 0.00 49 1011.9
20260504213706 74 121 0.9 2.6 0.00 0.00 0.00 47 1012.1
20260504213202 74 110 0.0 2.6 0.00 0.00 0.00 49 1012.0
20260504212659 73 116 0.9 2.6 0.00 0.00 0.00 50 1011.8
20260504212156 72 107 0.0 0.9 0.00 0.00 0.00 53 1012.0
20260504211653 71 193 1.7 2.6 0.00 0.00 0.00 55 1011.8
20260504211149 72 78 0.9 1.7 0.00 0.00 0.00 53 1011.7
20260504210647 69 199 0.0 0.9 0.00 0.00 0.00 63 1011.9
20260504210143 69 269 0.9 0.9 0.00 0.00 0.00 64 1011.9
20260504205641 69 245 0.0 0.9 0.00 0.00 0.00 66 1011.9
20260504205138 70 203 0.9 0.9 0.00 0.00 0.00 60 1011.9
20260504204637 71 179 0.0 0.9 0.00 0.00 0.00 53 1011.3
20260504204135 71 153 1.7 2.6 0.00 0.00 0.00 53 1011.4
20260504203634 72 144 0.9 1.7 0.00 0.00 0.00 51 1011.4
20260504203131 72 199 1.7 6.1 0.00 0.00 0.00 49 1011.5
20260504202631 73 61 0.9 3.5 0.00 0.00 0.00 49 1011.6
20260504202128 73 161 1.7 3.5 0.00 0.00 0.00 49 1011.4
20260504201625 72 135 1.7 5.2 0.00 0.00 0.00 52 1011.7
20260504201123 73 209 1.7 3.5 0.00 0.00 0.00 51 1011.6
20260504200620 72 107 0.9 3.5 0.00 0.00 0.00 50 1011.6
20260504200116 73 147 1.7 2.6 0.00 0.00 0.00 49 1012.0
20260504195612 74 191 0.9 6.1 0.00 0.00 0.00 50 1011.9
20260504195108 73 170 0.9 3.5 0.00 0.00 0.00 50 1011.9
20260504194605 72 158 2.6 3.5 0.00 0.00 0.00 54 1012.0
20260504194101 72 165 0.9 0.9 0.00 0.00 0.00 50 1012.1
20260504193558 72 136 0.9 2.6 0.00 0.00 0.00 52 1012.2
20260504193056 72 186 1.7 2.6 0.00 0.00 0.00 50 1012.1
20260504192554 72 141 0.0 2.6 0.00 0.00 0.00 55 1012.3
20260504192052 71 215 0.9 2.6 0.00 0.00 0.00 52 1012.3
20260504191550 72 149 1.7 2.6 0.00 0.00 0.00 51 1012.2
20260504191045 73 214 1.7 1.7 0.00 0.00 0.00 49 1012.2
20260504190542 72 67 0.9 1.7 0.00 0.00 0.00 52 1012.4
20260504190038 72 67 0.9 1.7 0.00 0.00 0.00 52 1012.4
20260504185536 73 65 1.7 1.7 0.00 0.00 0.00 53 1012.4
20260504185032 72 184 3.5 5.2 0.00 0.00 0.00 51 1012.8
20260504184527 72 214 0.9 2.6 0.00 0.00 0.00 50 1012.8
20260504184023 71 118 0.0 6.1 0.00 0.00 0.00 51 1012.7
20260504183520 72 145 1.7 2.6 0.00 0.00 0.00 49 1012.6
20260504183019 72 132 2.6 3.5 0.00 0.00 0.00 51 1012.6
20260504182515 71 242 0.9 2.6 0.00 0.00 0.00 56 1012.7
20260504182012 71 337 0.9 2.6 0.00 0.00 0.00 56 1012.7
20260504181509 71 173 0.9 2.6 0.00 0.00 0.00 55 1012.4
20260504181008 70 171 0.9 3.5 0.00 0.00 0.00 56 1012.3
20260504180506 69 208 1.7 3.5 0.00 0.00 0.00 56 1012.4
20260504180004 70 83 1.7 2.6 0.00 0.00 0.00 53 1012.8
20260504175501 69 199 1.7 2.6 0.00 0.00 0.00 57 1012.9
20260504174958 69 157 2.6 5.2 0.00 0.00 0.00 59 1013.0
20260504174456 68 92 0.9 2.6 0.00 0.00 0.00 57 1012.9
20260504173953 68 155 2.6 5.2 0.00 0.00 0.00 61 1013.4
20260504173449 68 183 2.6 2.6 0.00 0.00 0.00 60 1013.4
20260504172947 68 185 3.5 5.2 0.00 0.00 0.00 55 1013.4
20260504172443 68 227 4.3 6.1 0.00 0.00 0.00 57 1013.6
20260504171940 67 218 1.7 7.0 0.00 0.00 0.00 59 1013.7
20260504171437 67 124 1.7 6.1 0.00 0.00 0.00 57 1013.5
20260504170934 66 307 0.9 2.6 0.00 0.00 0.00 61 1013.7
20260504170430 66 176 4.3 7.0 0.00 0.00 0.00 56 1013.8
20260504160349 64 217 2.6 3.5 0.00 0.00 0.00 62 1014.8
20260504150814 61 85 0.0 0.9 0.00 0.00 0.00 65 1015.4
20260504150310 62 178 1.7 2.6 0.00 0.00 0.00 62 1015.3
20260504141240 61 199 1.7 1.7 0.00 0.00 0.00 60 1015.4
20260504140736 60 118 1.7 3.5 0.00 0.00 0.00 59 1015.5
20260504140232 60 119 0.9 2.6 0.00 0.00 0.00 60 1015.1
20260504130701 57 190 1.7 2.6 0.00 0.00 0.00 64 1015.3
20260504130157 57 223 0.9 2.6 0.00 0.00 0.00 62 1015.3
20260504120121 44 169 0.0 0.0 0.00 0.00 0.00 96 1015.0
20260504110549 41 206 0.0 0.0 0.00 0.00 0.00 98 1015.1
20260504100510 43 207 0.0 0.0 0.00 0.00 0.00 97 1015.5
20260504081903 45 195 0.0 0.0 0.00 0.00 0.00 93 1015.9
20260504081400 46 195 0.0 0.0 0.00 0.00 0.00 93 1016.1
20260504080856 46 194 0.0 0.0 0.00 0.00 0.00 93 1016.1
20260504080353 46 194 0.0 0.0 0.00 0.00 0.00 93 1016.3